Hourly Data Report for September 06, 2017

All times are specified in Local Standard Time (LST). Add 1 hour to adjust for Daylight Saving Time where and when it is observed.

COMOX A
BRITISH COLUMBIA

49°43'00.000" N
124°54'00.000" W
25.60 m
1021830
71893
YQQ

Download Data

Hourly Data (September 2017)
Hourly Data Report for September 6, 2017
Temp Definition
°C
Dew Point Temp Definition
°C
Rel Hum Definition
%
Wind Dir Definition
10's deg

Wind Spd Definition
km/h
Visibility Definition
km
Stn Press Definition
kPa
Hmdx Definition


Wind Chill Definition


Weather Definition


TIME
00:00 20.4 14.4 68 31 4 32.2 101.04     Mostly Cloudy
01:00 19.9 14.4 71 23 4 32.2 101.05     Mostly Cloudy
02:00 20.0 14.3 70   0 32.2 101.03     Mostly Cloudy
03:00 19.9 14.0 69 32 4 32.2 101.02     Mostly Cloudy
04:00 19.5 13.8 70 31 4 32.2 101.04     Cloudy
05:00 17.9 13.4 75 24 4 32.2 101.03     Cloudy
06:00 18.2 13.6 75   0 12.9 101.03     Mostly Cloudy
07:00 18.2 14.5 79 33 4 19.3 101.04     Mostly Cloudy
08:00 20.6 14.5 68   0 19.3 101.05     Mostly Cloudy
09:00 22.2 13.3 57 36 6 19.3 101.06 25   Mostly Cloudy
10:00 21.1 15.6 71   0 19.3 101.05 25   Mostly Cloudy
11:00 21.8 16.1 70 8 7 19.3 101.02 26   Mostly Cloudy
12:00 23.1 15.5 62 9 9 19.3 100.97 27   Mostly Cloudy
13:00 23.8 16.2 62 10 7 19.3 100.95 29   Mostly Cloudy
14:00 25.4 14.2 50 14 7 19.3 100.91 29   Mostly Cloudy
15:00 24.0 15.5 59 9 9 24.1 100.88 28   Cloudy
16:00 23.2 16.2 65 19 6 24.1 100.86 28   Cloudy
17:00 22.3 17.2 73 5 7 24.1 100.82 28   Cloudy
18:00 21.7 16.4 72 17 6 19.3 100.87 27   Mostly Cloudy
19:00 20.9 16.8 77 12 4 19.3 100.82 26   Cloudy
20:00 20.2 16.7 80 15 13 24.1 100.91 25   Cloudy
21:00 20.1 17.1 83 1 11 16.1 100.76 25   Cloudy
22:00 20.5 16.5 78 20 7 16.1 100.87 25   Cloudy
23:00 18.9 16.1 84 21 9 16.1 100.93     Mostly Cloudy

Notes on Data Quality.

Legend

  • E = Estimated
  • M = Missing
  • NA = Not Available
  • ‡ = Partner data that is not subject to review by the National Climate Archives
Date modified: